• En España
  • Lista de países
  • Para 7 días
  • Temperatura del agua
  • Mapa Satelital
  • El tiempo en el mapa
  • Informadores
  • user-avatar
    Iniciar sesión

    Tiempo cada hora Viedma

    Hoy, 21 Octubre, Domingo

    Tiempo Temperatura Precipitaciones Viento Presión Humedad
    00:00 +13°C° 0.2 mm 5 mps 760 mmHg 90%
    01:00 +13°C° 0.2 mm 5 mps 759 mmHg 90%
    02:00 +13°C° 0 mm 5 mps 758 mmHg 91%
    03:00 +13°C° 0.2 mm 5 mps 758 mmHg 92%
    04:00 +13°C° 0.2 mm 5 mps 758 mmHg 92%
    05:00 +13°C° 0.2 mm 5 mps 758 mmHg 93%
    06:00 +14°C° 0.1 mm 5 mps 758 mmHg 84%
    07:00 +15°C° 0.1 mm 6 mps 758 mmHg 76%
    08:00 +16°C° 0.1 mm 6 mps 758 mmHg 67%
    09:00 +17°C° 0 mm 6 mps 757 mmHg 53%
    10:00 +20°C° 0 mm 7 mps 757 mmHg 40%
    11:00 +21°C° 0 mm 8 mps 757 mmHg 26%
    12:00 +22°C° 0 mm 8 mps 757 mmHg 24%
    13:00 +22°C° 0 mm 8 mps 756 mmHg 22%
    14:00 +22°C° 0 mm 9 mps 756 mmHg 19%
    15:00 +22°C° 0 mm 8 mps 756 mmHg 19%
    16:00 +21°C° 0 mm 7 mps 755 mmHg 20%
    17:00 +21°C° 0 mm 6 mps 755 mmHg 20%
    18:00 +19°C° 0 mm 4 mps 755 mmHg 24%
    19:00 +17°C° 0 mm 3 mps 755 mmHg 28%
    20:00 +14°C° 0 mm 2 mps 756 mmHg 32%
    21:00 +14°C° 0 mm 2 mps 756 mmHg 34%
    22:00 +13°C° 0 mm 2 mps 756 mmHg 35%
    23:00 +13°C° 0 mm 2 mps 756 mmHg 36%

    Mañana, 22 Octubre, Lunes

    Tiempo Temperatura Precipitaciones Viento Presión Humedad
    00:00 +12°C° 0 mm 3 mps 756 mmHg 36%
    01:00 +12°C° 0 mm 4 mps 756 mmHg 35%
    02:00 +13°C° 0 mm 5 mps 756 mmHg 35%
    03:00 +11°C° 0 mm 6 mps 757 mmHg 43%
    04:00 +11°C° 0 mm 7 mps 757 mmHg 51%
    05:00 +11°C° 0 mm 7 mps 757 mmHg 59%
    06:00 +11°C° 0 mm 8 mps 758 mmHg 58%
    07:00 +12°C° 0 mm 9 mps 759 mmHg 57%
    08:00 +12°C° 0 mm 9 mps 760 mmHg 55%
    09:00 +13°C° 0 mm 9 mps 760 mmHg 55%
    10:00 +13°C° 0 mm 9 mps 761 mmHg 55%
    11:00 +15°C° 0 mm 9 mps 761 mmHg 55%
    12:00 +13°C° 0 mm 9 mps 762 mmHg 56%
    13:00 +13°C° 0 mm 9 mps 762 mmHg 58%
    14:00 +13°C° 0 mm 9 mps 763 mmHg 59%
    15:00 +12°C° 0 mm 9 mps 763 mmHg 62%
    16:00 +11°C° 0 mm 9 mps 764 mmHg 65%
    17:00 +9°C° 0 mm 8 mps 764 mmHg 68%
    18:00 +9°C° 0 mm 8 mps 765 mmHg 68%
    19:00 +8°C° 0 mm 7 mps 766 mmHg 68%
    20:00 +8°C° 0 mm 6 mps 766 mmHg 68%
    21:00 +8°C° 0 mm 6 mps 767 mmHg 69%
    22:00 +7°C° 0 mm 5 mps 767 mmHg 69%
    23:00 +7°C° 0 mm 4 mps 767 mmHg 70%

    Pasado mañana, 23 Octubre, Martes

    Tiempo Temperatura Precipitaciones Viento Presión Humedad
    00:00 +6°C° 0 mm 4 mps 767 mmHg 72%
    01:00 +5°C° 0 mm 3 mps 767 mmHg 74%
    02:00 +5°C° 0 mm 3 mps 767 mmHg 75%
    03:00 +6°C° 0 mm 2 mps 767 mmHg 76%
    04:00 +5°C° 0 mm 2 mps 767 mmHg 76%
    05:00 +5°C° 0 mm 2 mps 767 mmHg 76%
    06:00 +7°C° 0 mm 3 mps 767 mmHg 71%
    07:00 +8°C° 0 mm 3 mps 767 mmHg 65%
    08:00 +8°C° 0 mm 4 mps 768 mmHg 60%
    09:00 +10°C° 0 mm 4 mps 767 mmHg 56%
    10:00 +11°C° 0 mm 4 mps 767 mmHg 53%
    11:00 +12°C° 0 mm 5 mps 767 mmHg 49%
    12:00 +13°C° 0 mm 5 mps 767 mmHg 48%
    13:00 +13°C° 0 mm 6 mps 766 mmHg 47%
    14:00 +14°C° 0 mm 6 mps 765 mmHg 46%
    15:00 +13°C° 0 mm 6 mps 765 mmHg 50%
    16:00 +12°C° 0 mm 7 mps 764 mmHg 53%
    17:00 +11°C° 0 mm 7 mps 764 mmHg 56%
    18:00 +10°C° 0 mm 7 mps 764 mmHg 61%
    19:00 +9°C° 0 mm 7 mps 764 mmHg 66%
    20:00 +8°C° 0 mm 7 mps 764 mmHg 71%
    21:00 +8°C° 0.2 mm 6 mps 764 mmHg 74%
    22:00 +8°C° 0.2 mm 6 mps 764 mmHg 77%
    23:00 +8°C° 0.2 mm 5 mps 764 mmHg 80%

    24 Octubre, Miércoles

    Tiempo Temperatura Precipitaciones Viento Presión Humedad
    00:00 +8°C° 0.5 mm 5 mps 764 mmHg 82%
    01:00 +8°C° 0.5 mm 5 mps 763 mmHg 84%
    02:00 +8°C° 0.5 mm 5 mps 763 mmHg 86%
    03:00 +8°C° 0.6 mm 4 mps 763 mmHg 87%
    04:00 +8°C° 0.6 mm 4 mps 762 mmHg 88%
    05:00 +8°C° 0.6 mm 4 mps 762 mmHg 90%
    06:00 +10°C° 0.4 mm 4 mps 762 mmHg 89%
    07:00 +10°C° 0.4 mm 4 mps 762 mmHg 89%
    08:00 +10°C° 0.4 mm 4 mps 762 mmHg 88%
    09:00 +10°C° 0.4 mm 5 mps 762 mmHg 87%
    10:00 +10°C° 0.4 mm 5 mps 762 mmHg 85%
    11:00 +12°C° 0.4 mm 5 mps 761 mmHg 84%
    12:00 +12°C° 0.1 mm 5 mps 761 mmHg 82%
    13:00 +13°C° 0.1 mm 4 mps 760 mmHg 80%
    14:00 +13°C° 0.1 mm 4 mps 760 mmHg 78%
    15:00 +14°C° 0 mm 4 mps 760 mmHg 75%
    16:00 +14°C° 0 mm 3 mps 759 mmHg 72%
    17:00 +16°C° 0 mm 3 mps 759 mmHg 70%
    18:00 +14°C° 0 mm 3 mps 760 mmHg 74%
    19:00 +13°C° 0 mm 3 mps 760 mmHg 79%
    20:00 +12°C° 0 mm 3 mps 760 mmHg 84%
    21:00 +11°C° 0 mm 3 mps 760 mmHg 86%
    22:00 +11°C° 0 mm 3 mps 760 mmHg 88%
    23:00 +10°C° 0 mm 3 mps 760 mmHg 90%

    25 Octubre, Jueves

    Tiempo Temperatura Precipitaciones Viento Presión Humedad
    00:00 +10°C° 0 mm 3 mps 760 mmHg 90%
    01:00 +10°C° 0 mm 3 mps 760 mmHg 90%
    02:00 +10°C° 0 mm 3 mps 760 mmHg 90%
    03:00 +10°C° 0.1 mm 2 mps 760 mmHg 90%
    04:00 +10°C° 0.1 mm 2 mps 760 mmHg 89%
    05:00 +10°C° 0.1 mm 2 mps 761 mmHg 88%
    06:00 +12°C° 0.1 mm 2 mps 761 mmHg 81%
    07:00 +14°C° 0.1 mm 2 mps 761 mmHg 74%
    08:00 +16°C° 0.1 mm 2 mps 762 mmHg 67%
    09:00 +17°C° 0 mm 3 mps 762 mmHg 63%
    10:00 +18°C° 0 mm 3 mps 762 mmHg 58%
    11:00 +19°C° 0 mm 4 mps 762 mmHg 54%
    12:00 +19°C° 0.1 mm 5 mps 762 mmHg 55%
    13:00 +19°C° 0.1 mm 5 mps 762 mmHg 57%
    14:00 +19°C° 0.1 mm 6 mps 762 mmHg 58%
    15:00 +17°C° 0.1 mm 6 mps 762 mmHg 63%
    16:00 +16°C° 0.1 mm 6 mps 762 mmHg 67%
    17:00 +15°C° 0.1 mm 6 mps 762 mmHg 71%
    18:00 +14°C° 0 mm 6 mps 763 mmHg 74%
    19:00 +13°C° 0 mm 6 mps 763 mmHg 78%
    20:00 +11°C° 0 mm 6 mps 763 mmHg 82%
    21:00 +10°C° 0 mm 6 mps 764 mmHg 81%
    22:00 +10°C° 0 mm 5 mps 764 mmHg 81%
    23:00 +10°C° 0 mm 5 mps 764 mmHg 80%

    26 Octubre, Viernes

    Tiempo Temperatura Precipitaciones Viento Presión Humedad
    00:00 +10°C° 0 mm 5 mps 764 mmHg 81%
    01:00 +10°C° 0 mm 5 mps 764 mmHg 82%
    02:00 +10°C° 0 mm 4 mps 764 mmHg 83%
    03:00 +9°C° 0 mm 5 mps 764 mmHg 83%
    04:00 +9°C° 0 mm 5 mps 764 mmHg 83%
    05:00 +9°C° 0 mm 5 mps 765 mmHg 83%
    06:00 +10°C° 0.1 mm 5 mps 765 mmHg 80%
    07:00 +10°C° 0.1 mm 5 mps 765 mmHg 78%
    08:00 +12°C° 0.1 mm 5 mps 765 mmHg 75%
    09:00 +12°C° 0.4 mm 5 mps 765 mmHg 76%
    10:00 +11°C° 0.4 mm 6 mps 765 mmHg 76%
    11:00 +11°C° 0.4 mm 6 mps 764 mmHg 76%
    12:00 +11°C° 0.3 mm 6 mps 764 mmHg 77%
    13:00 +11°C° 0.3 mm 6 mps 763 mmHg 78%
    14:00 +11°C° 0.3 mm 6 mps 763 mmHg 79%
    15:00 +11°C° 0 mm 6 mps 762 mmHg 78%
    16:00 +11°C° 0 mm 6 mps 762 mmHg 78%
    17:00 +11°C° 0 mm 6 mps 762 mmHg 77%
    18:00 +11°C° 0 mm 6 mps 762 mmHg 80%
    19:00 +10°C° 0 mm 6 mps 762 mmHg 83%
    20:00 +9°C° 0 mm 6 mps 762 mmHg 86%
    21:00 +9°C° 0 mm 6 mps 761 mmHg 86%
    22:00 +9°C° 0 mm 7 mps 760 mmHg 86%
    23:00 +9°C° 0 mm 7 mps 760 mmHg 86%
    Mostrar más